RH
92 93 91 89 91 90 89 88 85 97 98 99 96 83 86 83 81 84 82 78 76 75 75 72 67 67 67 66 65 65 66 66 65 65 65 65 66 64
87 91 93 89 87 91 92 90 88 84 94 95 95 90 87 83 81 85 82 79 78 77 77 74 71 69 68 68 66 66 66 66 66 66 66 65 65 66
87 83 92 91 93 95 90 89 88 89 91 98 95 93 93 92 89 87 85 90 86 80 79 76 72 70 69 68 67 66 66 65 66 66 66 65 65 65
86 84 84 90 90 91 91 90 88 90 90 98 98 97 95 93 94 94 91 85 88 80 78 74 72 70 69 68 67 66 65 64 64 64 65 65 65 65
82 82 82 90 94 93 91 90 89 89 89 93 98 98 98 98 98 97 96 94 84 79 74 72 70 70 69 68 67 66 65 64 66 65 64 65 65 64
92 89 82 80 92 92 91 91 90 93 93 95 98 98 98 99 93 96 98 93 87 69 72 76 73 71 70 69 67 65 65 63 64 64 64 65 65 64
91 91 91 84 89 87 89 92 91 94 97 97 98 98 98 98 97 97 93 94 93 88 88 88 83 79 75 68 66 65 64 62 63 63 64 65 65 65
99 94 91 90 94 94 88 86 86 95 97 97 97 96 97 96 98 96 92 95 97 93 94 95 83 81 75 72 65 64 63 62 62 64 65 68 70 68
99 99 99 97 95 94 95 92 91 88 86 92 96 91 96 98 96 97 87 78 84 93 88 95 86 89 76 65 66 64 64 63 60 62 66 67 68 66
100 100 97 97 95 95 95 96 96 94 94 90 88 92 88 93 85 81 82 76 88 85 82 92 94 98 81 80 68 65 64 64 62 60 62 65 66 63
100 100 100 100 97 93 100 100 100 100 98 92 91 90 89 91 93 93 93 75 94 95 95 97 98 99 96 97 92 67 65 65 64 62 61 65 66 66
99 100 99 99 97 94 99 100 100 100 100 100 100 98 97 97 86 80 78 78 93 98 92 98 98 96 99 98 98 98 94 67 66 67 59 68 67 77
99 99 100 98 98 97 96 99 100 100 100 100 99 99 100 99 93 90 84 80 87 97 94 95 98 99 98 98 98 96 98 97 97 91 64 68 69 73
99 99 100 98 98 98 96 99 98 98 98 98 98 99 99 99 99 93 95 92 95 91 91 92 97 95 100 97 100 100 98 98 96 97 97 79 71 72
98 99 98 100 99 98 99 98 98 98 98 97 98 98 98 98 96 95 95 94 95 94 93 93 90 96 95 98 99 100 97 97 98 96 97 97 97 97
97 97 97 96 96 96 97 97 98 98 97 97 97 98 95 94 94 92 94 93 94 95 86 91 90 88 97 98 96 98 97 98 98 98 96 97 98 98
97 95 95 95 96 96 96 96 97 97 96 96 97 96 94 91 89 87 88 88 96 97 98 94 86 85 91 90 94 94 96 96 95 94 89 96 98 94
95 97 97 97 96 97 96 96 96 95 95 93 94 92 93 92 90 86 82 85 92 91 91 96 88 88 82 78 74 92 95 89 94 87 88 92 98 98
94 96 97 97 97 95 95 95 98 97 90 90 91 91 89 87 88 87 87 79 81 80 84 85 83 89 90 95 94 69 89 91 89 91 90 88 96 97
96 96 97 96 95 96 96 97 98 97 95 94 95 93 92 88 89 88 89 94 82 78 75 69 77 73 88 90 96 94 63 86 88 89 88 83 82 75
97 96 97 96 96 94 98 97 97 98 97 97 97 95 95 91 93 93 94 96 91 84 86 78 66 82 85 81 92 90 88 60 69 80 80 81 87 94
98 97 98 96 97 96 98 98 97 97 98 98 98 97 96 94 95 95 95 95 97 95 94 95 96 94 95 95 93 95 87 85 62 62 58 61 84 91
98 98 98 98 98 98 97 98 97 97 97 97 98 97 97 97 97 97 97 97 96 97 95 94 94 95 94 95 95 96 95 95 86 81 82 56 53 50
Wind_Speed
17 21 19 15 12 12 12 14 14 9 9 10 5 11 11 11 16 11 11 22 22 17 15 13 11 13 13 12 10 9 10 10 9 10 12 14 16 16
15 18 20 16 16 13 13 14 14 12 11 6 5 11 11 11 20 13 13 21 22 19 17 14 13 14 14 14 10 9 10 11 10 11 12 13 15 16
17 21 21 20 13 12 13 14 14 12 12 6 7 16 15 14 14 12 13 11 12 20 19 16 14 14 15 13 10 9 9 9 9 10 12 12 13 15
23 23 23 17 25 19 16 19 17 15 14 17 14 14 16 14 13 14 11 9 10 18 20 18 16 16 15 13 11 9 9 9 8 8 9 11 12 13
23 24 23 21 23 18 18 18 16 12 17 14 13 12 12 13 14 11 11 11 9 19 19 18 17 17 15 12 10 9 8 7 7 7 6 8 11 12
24 26 27 26 23 23 20 20 18 16 16 14 15 14 14 14 12 13 11 9 10 11 13 11 14 15 13 12 9 8 8 7 7 6 6 6 10 12
22 24 26 29 30 28 18 21 22 17 16 16 14 14 13 14 15 11 12 11 8 8 8 7 6 6 6 10 8 9 8 6 6 5 5 6 8 10
14 16 17 27 28 31 32 35 29 24 17 15 13 17 17 15 11 14 13 13 9 4 9 7 6 7 4 3 9 9 8 6 6 5 6 7 8 10
5 7 8 11 23 21 25 26 26 29 29 22 20 19 19 17 17 16 16 14 8 9 10 6 6 5 5 5 11 10 8 7 6 6 6 7 8 9
7 8 11 16 18 21 21 18 18 19 19 14 18 17 16 18 20 18 18 11 9 11 7 5 4 3 4 3 12 10 9 7 5 5 7 6 8 9
11 9 11 13 22 29 20 18 15 12 11 21 20 23 26 26 19 14 13 14 6 6 4 5 3 3 2 2 2 11 10 7 5 2 4 6 6 7
9 12 15 16 23 26 18 18 16 12 14 13 12 16 22 23 29 18 17 14 7 4 6 5 4 5 2 2 2 1 2 8 7 7 4 6 7 3
6 7 8 21 22 21 16 12 13 13 14 13 11 10 10 12 10 7 11 12 8 3 8 6 4 3 3 4 2 3 2 1 1 1 3 8 7 5
7 7 10 21 21 21 16 21 21 14 10 10 10 9 10 9 5 7 5 7 4 4 13 7 5 5 4 4 4 2 1 1 3 2 1 3 8 6
8 16 22 22 22 18 20 19 14 9 10 9 8 6 6 7 9 8 9 11 11 8 6 4 6 4 4 4 4 3 4 3 2 3 2 3 3 2
11 13 16 17 16 11 10 11 7 7 8 9 7 7 8 6 7 5 5 6 6 5 7 5 7 7 3 3 3 5 3 4 3 3 2 1 1 2
8 8 8 8 8 8 8 8 7 7 8 7 8 9 8 7 6 5 6 4 4 5 3 3 6 6 4 7 3 5 4 3 4 4 3 1 0 2
7 7 7 7 7 6 6 7 7 8 7 8 8 8 8 7 7 5 4 5 7 6 6 3 4 4 3 4 4 3 2 3 2 4 2 3 1 2
8 7 7 6 6 6 6 5 6 6 7 7 7 7 7 6 6 6 5 6 6 6 5 5 5 3 3 2 1 2 4 2 4 2 2 2 3 2
5 5 5 5 5 5 5 5 5 6 6 7 7 6 6 6 6 6 5 5 7 5 5 5 5 4 4 5 4 1 5 4 3 4 3 2 1 6
4 4 4 4 4 4 4 4 5 5 6 6 5 6 5 6 5 4 5 6 6 5 6 5 5 6 5 4 3 1 1 1 4 4 4 3 2 1
4 4 4 3 3 4 3 3 4 5 4 5 5 5 4 5 5 5 5 5 3 4 4 3 5 6 3 3 3 4 3 2 3 6 7 7 6 4
3 3 4 4 4 4 4 3 4 4 4 4 4 4 4 4 3 4 4 4 5 4 3 3 2 2 2 2 4 3 5 3 3 2 0 5 5 6
Wind_Direction
245 235 219 218 201 196 187 177 177 166 180 170 174 191 152 161 160 151 154 143 132 139 137 150 155 132 120 111 106 101 93 84 71 62 55 52 51 44
249 239 227 215 213 196 187 180 191 186 170 158 148 161 158 158 154 151 158 141 142 145 143 147 153 139 133 116 117 105 91 80 67 60 54 49 49 44
252 254 232 218 201 186 190 193 188 179 173 149 131 152 163 159 153 149 142 133 145 143 148 154 147 141 123 123 124 114 99 86 71 58 54 49 48 45
251 245 247 222 208 192 189 192 192 183 155 152 150 158 152 152 146 147 141 133 134 154 143 156 150 144 129 130 129 121 110 99 84 67 57 51 47 43
250 249 245 229 207 186 187 188 183 174 158 154 147 147 146 144 151 141 142 136 139 155 158 154 162 140 139 136 134 123 114 110 96 90 68 51 47 41
247 239 233 228 213 190 182 182 169 161 152 151 147 150 150 154 152 146 146 146 149 154 152 159 151 141 144 141 139 138 120 111 108 84 95 62 52 41
260 240 225 223 215 192 175 166 163 150 152 151 151 154 152 155 158 160 152 142 149 152 150 164 164 130 152 149 149 145 124 112 100 97 54 93 56 43
275 240 206 212 177 167 167 164 160 153 156 150 155 159 155 159 153 160 155 153 152 164 160 161 154 133 134 130 156 150 136 114 104 87 82 88 67 48
322 92 111 155 154 148 145 151 151 155 152 154 155 164 159 164 154 155 160 163 143 149 157 149 153 140 149 175 162 158 152 135 113 96 86 78 67 59
13 54 108 132 135 132 135 135 142 145 149 155 159 153 160 161 163 161 157 132 106 152 150 143 152 128 151 173 176 168 161 156 135 111 99 94 83 60
24 30 86 105 130 133 133 135 131 123 128 142 149 150 154 150 146 140 154 149 131 158 181 108 138 104 131 175 225 178 176 172 179 171 133 113 100 77
39 43 73 99 114 128 131 132 127 125 117 112 121 130 142 153 159 161 159 160 138 118 192 100 125 140 176 232 166 299 149 185 198 214 178 148 130 101
51 57 66 77 81 85 91 107 117 118 115 112 112 121 130 144 153 153 172 159 148 110 171 118 143 141 100 129 152 176 149 204 115 304 208 180 157 136
74 71 80 88 93 90 92 103 104 106 108 112 120 132 137 138 113 125 108 104 65 128 163 124 134 151 128 132 156 142 163 205 142 179 157 220 183 160
74 85 82 81 85 88 100 98 104 110 111 113 114 108 110 118 111 98 85 87 71 74 114 111 127 126 115 128 148 151 126 214 160 151 189 170 170 145
55 66 76 80 75 76 72 66 73 90 111 119 120 110 106 116 120 117 113 112 96 74 56 79 117 124 106 90 118 143 143 176 160 183 161 140 133 142
67 63 63 66 69 68 68 71 77 83 97 110 107 106 106 107 100 101 122 105 98 122 90 70 84 92 94 141 112 154 145 142 169 164 136 119 349 172
59 63 59 62 71 72 78 78 74 82 88 96 100 111 116 117 115 102 98 100 123 133 127 125 124 85 57 33 80 125 114 141 142 150 117 128 181 227
60 53 57 56 59 66 79 78 80 88 99 99 102 104 109 108 118 118 121 121 117 129 133 129 143 104 116 151 1 141 131 151 126 107 138 145 175 203
66 77 74 69 71 76 78 93 103 103 100 102 102 111 115 123 130 134 133 120 127 132 132 146 160 162 139 175 166 237 182 135 136 140 146 110 85 53
73 78 79 76 76 75 77 83 91 92 102 109 113 119 121 132 123 122 122 125 134 139 148 165 176 111 98 98 80 104 76 110 137 143 147 111 116 72
68 79 80 80 80 85 69 72 79 87 96 100 108 112 118 127 134 133 134 142 124 120 110 116 143 144 154 159 151 139 128 42 81 144 161 150 162 187
76 84 90 97 94 97 96 88 92 95 94 102 105 116 124 118 118 119 121 127 140 126 121 121 116 104 135 142 134 128 138 146 144 146 138 177 160 118